TimeAKDT,TemperatureF,Dew PointF,Humidity,Sea Level PressureIn,VisibilityMPH,Wind Direction,Wind SpeedMPH,Gust SpeedMPH,PrecipitationIn,Events,Conditions,WindDirDegrees,DateUTC
12:16 AM,48.2,44.6,87,29.78,10.0,East,13.8,-,N/A,,Overcast,100,2013-09-27 08:16:00
12:36 AM,48.2,44.6,87,29.78,10.0,SSE,4.6,-,N/A,,Overcast,150,2013-09-27 08:36:00
12:56 AM,48.2,42.8,82,29.78,10.0,East,9.2,-,N/A,,Overcast,80,2013-09-27 08:56:00
1:16 AM,48.2,42.8,82,29.78,10.0,Calm,Calm,-,N/A,,Overcast,0,2013-09-27 09:16:00
1:36 AM,48.2,42.8,82,29.77,10.0,ESE,5.8,-,N/A,,Overcast,120,2013-09-27 09:36:00
1:56 AM,48.2,42.8,82,29.77,9.0,ESE,6.9,-,N/A,,Overcast,110,2013-09-27 09:56:00
2:16 AM,48.2,42.8,82,29.76,10.0,ESE,9.2,-,N/A,,Overcast,110,2013-09-27 10:16:00
2:36 AM,48.2,42.8,82,29.76,10.0,WSW,4.6,-,0.01,,Overcast,250,2013-09-27 10:36:00
2:56 AM,48.2,42.8,82,29.76,10.0,Calm,Calm,-,0.02,,Overcast,0,2013-09-27 10:56:00
3:16 AM,48.2,42.8,82,29.75,10.0,SE,5.8,-,N/A,,Overcast,130,2013-09-27 11:16:00
3:36 AM,48.2,42.8,82,29.75,10.0,Calm,Calm,-,N/A,,Overcast,0,2013-09-27 11:36:00
3:56 AM,48.2,42.8,82,29.75,10.0,East,6.9,-,0.01,,Overcast,100,2013-09-27 11:56:00
4:16 AM,48.2,42.8,82,29.75,10.0,SE,5.8,-,0.02,,Overcast,140,2013-09-27 12:16:00
4:36 AM,48.2,42.8,82,29.75,10.0,Calm,Calm,-,0.03,,Overcast,0,2013-09-27 12:36:00
4:56 AM,48.2,42.8,82,29.74,10.0,ESE,8.1,-,0.03,,Overcast,110,2013-09-27 12:56:00
5:16 AM,48.2,42.8,82,29.74,10.0,East,8.1,-,N/A,,Overcast,100,2013-09-27 13:16:00
5:36 AM,48.2,42.8,82,29.74,10.0,ESE,6.9,-,N/A,,Overcast,110,2013-09-27 13:36:00
5:56 AM,48.2,42.8,82,29.72,10.0,East,13.8,-,N/A,,Overcast,100,2013-09-27 13:56:00
6:16 AM,48.2,42.8,82,29.72,10.0,East,13.8,-,N/A,,Overcast,90,2013-09-27 14:16:00
6:36 AM,48.2,42.8,82,29.71,10.0,ESE,11.5,-,N/A,,Overcast,110,2013-09-27 14:36:00
6:56 AM,48.2,42.8,82,29.71,10.0,East,10.4,19.6,N/A,,Overcast,90,2013-09-27 14:56:00
7:16 AM,48.2,42.8,82,29.71,10.0,SSE,3.5,16.1,N/A,,Overcast,160,2013-09-27 15:16:00
7:36 AM,48.2,42.8,82,29.70,10.0,East,11.5,-,N/A,,Overcast,80,2013-09-27 15:36:00
7:56 AM,48.2,42.8,82,29.70,10.0,SSE,3.5,-,N/A,,Overcast,160,2013-09-27 15:56:00
8:16 AM,48.2,42.8,82,29.70,10.0,North,3.5,-,N/A,,Overcast,350,2013-09-27 16:16:00
8:36 AM,48.2,42.8,82,29.69,10.0,ESE,5.8,-,N/A,,Overcast,120,2013-09-27 16:36:00
8:56 AM,50.0,42.8,76,29.68,10.0,East,4.6,-,N/A,,Overcast,100,2013-09-27 16:56:00
9:16 AM,50.0,42.8,76,29.67,10.0,East,6.9,-,N/A,,Overcast,100,2013-09-27 17:16:00
9:36 AM,50.0,42.8,76,29.66,10.0,West,5.8,-,N/A,,Overcast,280,2013-09-27 17:36:00
9:56 AM,51.8,42.8,71,29.65,10.0,ESE,13.8,-,N/A,,Overcast,120,2013-09-27 17:56:00
10:16 AM,51.8,42.8,71,29.64,10.0,ESE,12.7,-,N/A,,Overcast,120,2013-09-27 18:16:00
10:36 AM,51.8,42.8,71,29.63,10.0,SE,12.7,18.4,N/A,,Overcast,130,2013-09-27 18:36:00
10:56 AM,51.8,42.8,71,29.62,10.0,ESE,13.8,19.6,N/A,,Overcast,120,2013-09-27 18:56:00
11:16 AM,51.8,42.8,71,29.61,10.0,SE,13.8,-,N/A,,Overcast,130,2013-09-27 19:16:00
11:36 AM,51.8,41.0,67,29.60,10.0,SE,15.0,21.9,N/A,,Overcast,130,2013-09-27 19:36:00
11:56 AM,51.8,41.0,67,29.59,10.0,ESE,13.8,21.9,N/A,,Overcast,120,2013-09-27 19:56:00
12:16 PM,51.8,42.8,71,29.58,10.0,SE,15.0,20.7,N/A,,Overcast,130,2013-09-27 20:16:00
12:36 PM,51.8,41.0,67,29.58,10.0,SE,16.1,23.0,N/A,,Overcast,130,2013-09-27 20:36:00
12:56 PM,51.8,42.8,71,29.57,10.0,ESE,15.0,20.7,N/A,,Overcast,120,2013-09-27 20:56:00
1:16 PM,51.8,42.8,71,29.55,10.0,ESE,13.8,20.7,N/A,,Overcast,120,2013-09-27 21:16:00
1:36 PM,50.0,42.8,76,29.54,10.0,ESE,13.8,19.6,N/A,,Overcast,110,2013-09-27 21:36:00
1:56 PM,50.0,42.8,76,29.54,10.0,ESE,15.0,18.4,N/A,,Overcast,120,2013-09-27 21:56:00
2:16 PM,50.0,42.8,76,29.53,10.0,SE,12.7,-,0.02,,Overcast,130,2013-09-27 22:16:00
2:36 PM,50.0,42.8,76,29.51,8.0,SE,15.0,-,0.03,,Overcast,140,2013-09-27 22:36:00
2:56 PM,50.0,42.8,76,29.49,8.0,ESE,16.1,21.9,0.03,,Overcast,120,2013-09-27 22:56:00
3:16 PM,50.0,42.8,76,29.48,8.0,ESE,17.3,20.7,N/A,,Overcast,120,2013-09-27 23:16:00
3:36 PM,50.0,42.8,76,29.47,8.0,ESE,12.7,21.9,N/A,,Overcast,110,2013-09-27 23:36:00
3:56 PM,50.0,42.8,76,29.46,8.0,ESE,15.0,19.6,N/A,,Overcast,120,2013-09-27 23:56:00
4:16 PM,50.0,42.8,76,29.44,8.0,ESE,18.4,25.3,0.01,,Overcast,120,2013-09-28 00:16:00
4:36 PM,50.0,42.8,76,29.43,8.0,SE,17.3,25.3,0.01,,Overcast,130,2013-09-28 00:36:00
4:56 PM,50.0,42.8,76,29.41,10.0,ESE,13.8,24.2,0.01,,Mostly Cloudy,120,2013-09-28 00:56:00
5:16 PM,50.0,41.0,71,29.39,10.0,SE,16.1,24.2,0.01,,Mostly Cloudy,130,2013-09-28 01:16:00
5:36 PM,50.0,41.0,71,29.38,10.0,SE,18.4,23.0,0.03,,Mostly Cloudy,140,2013-09-28 01:36:00
5:56 PM,48.2,41.0,76,29.37,10.0,ESE,16.1,21.9,0.04,,Mostly Cloudy,120,2013-09-28 01:56:00
6:16 PM,48.2,41.0,76,29.35,10.0,SE,17.3,23.0,0.02,,Mostly Cloudy,130,2013-09-28 02:16:00
6:36 PM,48.2,41.0,76,29.34,10.0,SE,13.8,23.0,0.03,,Mostly Cloudy,130,2013-09-28 02:36:00
6:56 PM,48.2,39.2,71,29.32,10.0,SE,19.6,24.2,0.04,,Overcast,130,2013-09-28 02:56:00
7:16 PM,48.2,41.0,76,29.31,10.0,SE,18.4,24.2,0.02,,Overcast,130,2013-09-28 03:16:00
7:36 PM,48.2,41.0,76,29.31,10.0,SE,15.0,23.0,0.05,,Overcast,130,2013-09-28 03:36:00
7:56 PM,48.2,41.0,76,29.29,10.0,ESE,16.1,21.9,0.07,,Overcast,120,2013-09-28 03:56:00
8:16 PM,48.2,39.2,71,29.29,10.0,SE,15.0,25.3,0.04,,Overcast,130,2013-09-28 04:16:00
8:36 PM,48.2,41.0,76,29.28,10.0,SE,13.8,-,0.06,,Overcast,130,2013-09-28 04:36:00
8:56 PM,48.2,42.8,82,29.26,10.0,ESE,13.8,18.4,0.09,,Overcast,110,2013-09-28 04:56:00
9:16 PM,48.2,42.8,82,29.25,10.0,ESE,13.8,-,0.02,,Overcast,120,2013-09-28 05:16:00
9:36 PM,48.2,41.0,76,29.24,10.0,ESE,13.8,-,0.04,,Overcast,120,2013-09-28 05:36:00
9:56 PM,48.2,41.0,76,29.22,10.0,ESE,13.8,19.6,0.06,,Overcast,120,2013-09-28 05:56:00
10:16 PM,48.2,42.8,82,29.21,10.0,ESE,15.0,19.6,0.01,,Overcast,120,2013-09-28 06:16:00
10:36 PM,48.2,39.2,71,29.19,10.0,SE,15.0,26.5,0.02,,Overcast,130,2013-09-28 06:36:00
10:56 PM,48.2,39.2,71,29.18,10.0,SE,19.6,25.3,0.04,,Overcast,130,2013-09-28 06:56:00
11:16 PM,48.2,39.2,71,29.17,10.0,SE,16.1,23.0,N/A,,Overcast,130,2013-09-28 07:16:00
11:36 PM,48.2,39.2,71,29.16,10.0,SE,15.0,26.5,0.01,,Overcast,130,2013-09-28 07:36:00
11:56 PM,48.2,39.2,71,29.15,10.0,SE,18.4,24.2,0.01,,Overcast,140,2013-09-28 07:56:00